Estación de San Diego

Ultimos registro cada 15 minutos 85
Estación Fecha / Hora Temperatura Humedad Lluvia Velocidad Dirección Radiación Presion
85 San Diego 09-05-2026 21:00 8,7 88 0 0 272 0 1014
84 San Diego 09-05-2026 20:45 9,1 87 0 0 272 0 1013,7
83 San Diego 09-05-2026 20:30 9,2 88 0 0 272 0 1013,6
82 San Diego 09-05-2026 20:15 9,4 84 0 0 355 0 1013,6
81 San Diego 09-05-2026 20:00 10,7 83 0 0 303 0 1013,6
80 San Diego 09-05-2026 19:45 10,8 83 0 0 281 0 1013,6
79 San Diego 09-05-2026 19:30 10,7 84 0 0 305 0 1013,7
78 San Diego 09-05-2026 19:15 10,9 82 0 0 22 0 1013,5
77 San Diego 09-05-2026 19:00 11,4 81 0 0 349 0 1013,5
76 San Diego 09-05-2026 18:45 12,1 79 0 0,4 202 0 1013,5
75 San Diego 09-05-2026 18:30 13,4 75 0 0 312 0 1013,3
74 San Diego 09-05-2026 18:15 14,5 71 0 0 251 0 1012,9
73 San Diego 09-05-2026 18:00 15,9 71 0 0 164 0 1012,9
72 San Diego 09-05-2026 17:45 17,6 65 0 0 164 7 1012,9
71 San Diego 09-05-2026 17:30 20,1 58 0 0 164 11 1012,7
70 San Diego 09-05-2026 17:15 21,2 48 0 0 164 39 1012,6
69 San Diego 09-05-2026 17:00 21,6 49 0 0 120 79 1012,6
68 San Diego 09-05-2026 16:45 21,9 48 0 0 118 37 1012,7
67 San Diego 09-05-2026 16:30 22,1 47 0 0 92 25 1012,7
66 San Diego 09-05-2026 16:15 22,2 46 0 0,9 96 229 1012,8
65 San Diego 09-05-2026 16:00 22,5 46 0 0,9 105 267 1012,9
64 San Diego 09-05-2026 15:45 22,3 46 0 0 194 308 1013
63 San Diego 09-05-2026 15:30 22,2 49 0 0,9 92 343 1013,1
62 San Diego 09-05-2026 15:15 21,9 50 0 1,8 128 381 1013,1
61 San Diego 09-05-2026 15:00 21,6 52 0 0 89 415 1013,2
60 San Diego 09-05-2026 14:45 21 52 0 0 32 443 1013,3
59 San Diego 09-05-2026 14:30 20,9 56 0 0 154 468 1013,6
58 San Diego 09-05-2026 14:15 20,4 54 0 0 101 494 1013,8
57 San Diego 09-05-2026 14:00 19,9 55 0 0 197 517 1013,9
56 San Diego 09-05-2026 13:45 19,4 59 0 0,9 149 529 1013,9
55 San Diego 09-05-2026 13:30 19,1 63 0 0,4 128 545 1014,1
54 San Diego 09-05-2026 13:15 18,7 64 0 1,8 143 555 1014,4
53 San Diego 09-05-2026 13:00 18,1 67 0 0,4 34 563 1014,5
52 San Diego 09-05-2026 12:45 17,6 67 0 0,9 188 563 1014,7
51 San Diego 09-05-2026 12:30 16,9 70 0 0,4 94 563 1015,2
50 San Diego 09-05-2026 12:15 16 72 0 0 45 561 1015
49 San Diego 09-05-2026 12:00 15,2 76 0 0,4 276 552 1015,4
48 San Diego 09-05-2026 11:45 14,3 80 0 0,4 195 540 1015,5
47 San Diego 09-05-2026 11:30 13,6 84 0 0,9 345 526 1015,6
46 San Diego 09-05-2026 11:15 12,8 89 0 0 39 506 1015,6
45 San Diego 09-05-2026 11:00 11,9 95 0 0 348 489 1016
44 San Diego 09-05-2026 10:45 11 97 0 0 342 288 1016
43 San Diego 09-05-2026 10:30 10,3 97 0 0,4 343 431 1016,2
42 San Diego 09-05-2026 10:15 9,2 97 0 0 342 192 1016,4
41 San Diego 09-05-2026 10:00 8,9 97 0 0,4 340 121 1016,3
40 San Diego 09-05-2026 09:45 8,6 97 0 0 10 153 1016,3
39 San Diego 09-05-2026 09:30 8,2 97 0 0 324 123 1016,6
38 San Diego 09-05-2026 09:15 8 97 0 0 345 107 1016,6
37 San Diego 09-05-2026 09:00 7,4 97 0 0 2 141 1016,6
36 San Diego 09-05-2026 08:45 6,8 97 0 0 348 98 1016,8
35 San Diego 09-05-2026 08:30 6,6 97 0 0 344 81 1016,8
34 San Diego 09-05-2026 08:15 6,2 97 0 0 334 44 1016,6
33 San Diego 09-05-2026 08:00 5,6 97 0 0 325 30 1016,5
32 San Diego 09-05-2026 07:45 5,2 97 0 0 298 12 1016,4
31 San Diego 09-05-2026 07:30 4,9 96 0 0 1 0 1016,4
30 San Diego 09-05-2026 07:15 4,6 96 0 0 51 0 1016,2
29 San Diego 09-05-2026 07:00 4,6 96 0 0 110 0 1016,2
28 San Diego 09-05-2026 06:45 4,8 96 0 0 110 0 1016,3
27 San Diego 09-05-2026 06:30 4,8 96 0 0 77 0 1016,1
26 San Diego 09-05-2026 06:15 5,1 96 0 0 77 0 1016,2
25 San Diego 09-05-2026 06:00 5,2 96 0 0 332 0 1016,1
24 San Diego 09-05-2026 05:45 5,3 96 0 0 358 0 1016,1
23 San Diego 09-05-2026 05:30 5,4 95 0 0 332 0 1016
22 San Diego 09-05-2026 05:15 5,7 95 0 0 18 0 1015,9
21 San Diego 09-05-2026 05:00 6,4 96 0 0 319 0 1016
20 San Diego 09-05-2026 04:45 6,7 96 0 0 319 0 1016
19 San Diego 09-05-2026 04:30 6,8 96 0 0 319 0 1016,2
18 San Diego 09-05-2026 04:15 6,9 96 0 0,4 332 0 1016,2
17 San Diego 09-05-2026 04:00 7 96 0 0,4 301 0 1016,2
16 San Diego 09-05-2026 03:45 6,8 96 0 0 339 0 1016,1
15 San Diego 09-05-2026 03:30 6,7 95 0 0 14 0 1016,1
14 San Diego 09-05-2026 03:15 7 95 0,2 0 262 0 1016,3
13 San Diego 09-05-2026 03:00 7,2 95 0 0 262 0 1016,4
12 San Diego 09-05-2026 02:45 7,4 95 0 0 347 0 1016,6
11 San Diego 09-05-2026 02:30 7,6 95 0 0 347 0 1016,6
10 San Diego 09-05-2026 02:15 7,6 95 0 0 347 0 1016,6
9 San Diego 09-05-2026 02:00 7,4 95 0 0 347 0 1016,6
8 San Diego 09-05-2026 01:45 7,4 95 0 0 347 0 1016,6
7 San Diego 09-05-2026 01:30 6,9 94 0 0 347 0 1016,8
6 San Diego 09-05-2026 01:15 7,1 93 0 0 347 0 1016,7
5 San Diego 09-05-2026 01:00 7,7 94 0 0 347 0 1016,6
4 San Diego 09-05-2026 00:45 8,1 94 0 0 347 0 1016,4
3 San Diego 09-05-2026 00:30 8,4 94 0 0 347 0 1016,8
2 San Diego 09-05-2026 00:15 8,6 94 0 0,4 318 0 1017
1 San Diego 09-05-2026 00:00 8,9 93 0 0,4 291 0 1017,1